Location: Gdynia
(54.5193°N, 18.5395°E)
Time: 13:22:53
(UTC+01:00)

ISS - Pass Details

Date: 27 January 2019
Orbit: 403 x 411 km, 51.6° (Epoch: 21 February)

Event Time Altitude Azimuth Distance (km) Brightness Sun altitude
Rises 18:23:01 0° 238° (WSW) 2,332 1.2 -18.4°
Reaches altitude 10° 18:25:11 10° 229° (SW) 1,475 -0.2 -18.7°
Enters shadow 18:28:10 35° 165° (SSE) 684 -2.8 -19.1°
